Regional Weather Roundup
Issued by NWS Green Bay, WI

Home | Current Version | Previous Version | Text Only | Print | Product List | Glossary On
Versions: 1 2 3 4 5 6 7 8 9 10 11 12 13 14 15 16 17 18 19 20 21 22 23 24 25 26 27 28 29 30 31 32 33 34 35 36 37 38 39 40 41 42 43 44 45 46 47 48 49 50
156
ASUS43 KGRB 260011
RWRGRB

NORTH-CENTRAL AND NORTHEAST WISCONSIN REGIONAL WEATHER ROUNDUP
NATIONAL WEATHER SERVICE GREEN BAY WI
700 PM CDT TUE APR 25 2017

WIZ005-009-010>012-018-019-260100-
NORTH CENTRAL WISCONSIN

CITY           SKY/WX    TMP DP  RH WIND       PRES   REMARKS
IRONWOOD       NOT AVBL
MANITOWISH WTR CLOUDY    56  41  57 N5        29.60R
ARBOR VITAE    LGT RAIN  60  49  67 N9        29.59S
EAGLE RIVER    LGT RAIN  65  41  42 CALM      29.59R
LAND O LAKES   LGT RAIN  59  41  51 N5        29.62R
RHINELANDER    LGT RAIN  68  46  45 SW3       29.59R
PHILLIPS       CLOUDY    58  51  77 N5        29.58S
ANTIGO         CLOUDY    61  50  66 SE5       29.59F
TOMAHAWK       LGT RAIN  60  49  66 CALM      29.59S
MERRILL        RAIN      59  50  70 W6        29.59R
$$

WIZ013-073-260100-
NORTHEAST WISCONSIN

CITY           SKY/WX    TMP DP  RH WIND       PRES   REMARKS
IRON MOUNTAIN  CLOUDY    63  45  51 SE10      29.61R
MARINETTE      CLOUDY    60  51  72 S6        29.62F
OCONTO         CLOUDY    60  48  65 SE6       29.59F
$$

WIZ017-030-035>037-045-260100-
CENTRAL WISCONSIN

CITY           SKY/WX    TMP DP  RH WIND       PRES   REMARKS
MEDFORD        RAIN      55  52  90 W3        29.60R
WAUSAU         LGT RAIN  61  48  62 W5        29.57R
MOSINEE        LGT RAIN  61  52  72 W10       29.59S
MARSHFIELD     LGT RAIN  56  52  86 NW9       29.58S
WISC RAPIDS    CLOUDY    62  52  69 N3        29.57S
STEVENS POINT  CLOUDY    64  46  52 NW6       29.57S
WAUPACA        CLOUDY    68  50  51 E9        29.58R
SHAWANO        CLOUDY    67  50  54 SE9       29.58S
CLINTONVILLE   CLOUDY    64  50  59 SE5       29.58R
WAUTOMA        CLOUDY    70  47  43 E9          N/A
$$

WIZ038-039-048-051-260100-
FOX VALLEY

CITY           SKY/WX    TMP DP  RH WIND       PRES   REMARKS
NWS GREEN BAY  CLOUDY    64  50  60 SE8       29.59F
APPLETON       MOCLDY    63  46  55 SE9       29.58R
OSHKOSH        MOCLDY    66  50  56 SE9       29.57S
FOND DU LAC    CLOUDY    68  48  48 SE10      29.57F
$$

WIZ022-050-052-260100-
EAST CENTRAL WISCONSIN

CITY           SKY/WX    TMP DP  RH WIND       PRES   REMARKS
EPHRAIM        FAIR      62  51  67 S7        29.62F
WASHINGTON ISL FAIR      51  44  77 CALM      29.65S
STURGEON BAY   LGT RAIN  61  52  72 S13       29.62F
MANITOWOC      CLOUDY    57  49  74 SE7       29.62F
SHEBOYGAN      CLOUDY    60  52  74 SE7       29.60F
$$

LMZ563-521-522-541>543-260100-
LAKESHORE

STATION/POSITION TIME  TEMP    WIND        PRES    VSBY  WAVE
                       AIR SEA DIR/SP/G                  HT/PER
                 (UTC) (F)     (DEG/KT/KT) (MB)    (MI)  (FT/S)
SHEBOYGAN LKSHOR 0000   50      60/  3/  3 1002.3F
KEWAUNEE LKSHORE 2348   53     170/  7/  8 1002.8F
NORTHPORT PIER   2340   43     120/  9/ 12 1004.1S
N MID LAKE BUOY  2350   40 37   80/  6/  8 1005.7F         1/ 4
SISTER BAY LKSHO 2336   59     130/ 12/ 14   N/A
CHAMBERS ISLAND  2330   61     150/  4/ 10 1002.7F
MENOMINEE LKSHOR 2348   56     190/  7/  8 1002.2F
$$




USA.gov is the U.S. government's official web portal to all federal, state and local government web resources and services.